Regional Weather Roundup
Issued by NWS Grand Forks, ND

Home | Current Version | Previous Version | Graphics & Text | Print | Product List | Glossary On
Versions: 1 2 3 4 5 6 7 8 9 10 11 12 13 14 15 16 17 18 19 20 21 22 23 24 25 26 27 28 29 30 31 32 33 34 35 36 37 38 39 40 41 42 43 44 45 46 47 48 49 50
000
ASUS43 KFGF 270210
RWRFGF
PRAIRIE TO PINES  WEATHER ROUNDUP
NATIONAL WEATHER SERVICE EASTERN NORTH DAKOTA/GRAND FORKS ND
800 PM CST FRI DEC 26 2014

 **SATELLITE DATA USED TO AUGMENT SKY COVER AT AUTOMATED STATIONS**
 *****  WEATHER ACROSS EASTERN NORTH DAKOTA  *****

CITY           SKY/WX    TMP DP  RH WIND       PRES   REMARKS
GRAND FORKS    MOCLDY     7   3  84 NW7       30.24F WCI  -5
GRAND FRKS AFB PTCLDY     4   1  88 N8        30.24F WCI -10
GRAND FRKS NWS   N/A      7 N/A N/A NW1         N/A
DEVILS LAKE    PTCLDY     1  -6  71 W3        30.18S
FARGO          PTCLDY    13   7  77 NW18      30.24R WCI  -4
WAHPETON ARPT  CLOUDY    21  14  73 N13G18    30.21S WCI   9
$$

 ***** WEATHER ACROSS CENTRAL AND WESTERN NORTH DAKOTA  *****

CITY           SKY/WX    TMP DP  RH WIND       PRES   REMARKS
BISMARCK       CLEAR      3   1  91 E5        30.20S WCI  -6
MINOT          CLOUDY     8   2  76 SE3       30.16F
JAMESTOWN      PTCLDY     4   1  88 NW5       30.20S WCI  -5
MINOT AFB      CLOUDY     6   2  84 S3        30.17S
GARRISON         N/A      8   5  87 CALM      30.16S
WILLISTON      CLOUDY    20  14  77 S5        30.13S WCI  13
DICKINSON      PTCLDY    12   5  73 CALM      30.10F
HETTINGER      CLEAR      5   2  87 CALM      30.12S
$$

 *****  OTHER AIRPORT OBSERVATIONS IN OUR AREA  *****

CITY           SKY/WX    TMP DP  RH WIND       PRES   REMARKS
WALHALLA         N/A      0  -2  92 W3        30.26S
GRAFTON AIRPOR NOT AVBL
VALLEY CITY AR FAIR       3   3 100 NW6       30.21S WCI  -8
CANDO          FAIR       0  -4  85 CALM      30.20S
CAVALIER APRT  CLOUDY     5   1  85 W7        30.25F WCI  -7
GWINNER        MOCLDY    12   9  85 NW10      30.23R WCI  -1
ROLLA          FAIR      -8 N/A N/A SW5       30.16S WCI -19
 ***** THE ABOVE OBSERVATIONS ARE NON NWS ARE NOT QUALITY
       CONTROLLED AND MAY MIS-REPORT RAIN FOR SNOW...
$$

  *****  WEATHER ACROSS NORTHERN MINNESOTA  *****

CITY           SKY/WX    TMP DP  RH WIND       PRES   REMARKS
FLAG ISLAND    FLURRIES  12   7  79 NW8       30.18S WCI   1
WARROAD        FLURRIES  16   9  73 NW7       30.18S WCI   6
ROSEAU         FLURRIES  16   9  73 NW8       30.19S WCI   5
HALLOCK        CLOUDY     9   7  92 NW10      30.23F WCI  -6
THF RVR FALLS  CLOUDY    12   9  85 NW9       30.20S WCI   0
BAUDETTE       CLOUDY    16  10  77 N10       30.15S WCI   4
WASKISH        FLURRIES  19  16  86 CALM      30.15R
CROOKSTON      FLURRIES  10   7  85 NW12      30.24S WCI  -4
STEPHEN NDAWN    N/A      9   7  92 N10         N/A  WCI  -6
GREENBUSH NDAW   N/A     10   9  92 NW10        N/A  WCI  -3
$$
  *****  WEATHER ACROSS CENTRAL AND WEST MINNESOTA  *****

CITY           SKY/WX    TMP DP  RH WIND       PRES   REMARKS
FOSSTON        FLURRIES  14  10  85 NW8       30.18S WCI   3
BEMIDJI        CLOUDY    20  15  79 N7        30.13S WCI  11
PARK RAPIDS    CLOUDY    23  15  71 N8        30.13R WCI  14
ELBOW LAKE     CLOUDY    22  17  82 N12       30.16R WCI  10
WADENA         CLOUDY    21  18  86 N6        30.13S WCI  14
DETROIT LAKES  CLOUDY    19  18  93 NW10      30.17R WCI   8
MOORHEAD       CLOUDY    16  16 100 N13       30.24R WCI   2
FERGUS FALLS   CLOUDY    19  14  79 N15       30.21R WCI   5
MORRIS MN      CLOUDY    25  19  80 N13       30.14S WCI  13
STAPLES        CLOUDY    21  16  79 N6        30.13S WCI  14
$$
  *****  WEATHER ELSEWHERE ACROSS MINNESOTA  *****

CITY           SKY/WX    TMP DP  RH WIND       PRES   REMARKS
DULUTH         CLOUDY    27  19  72 N6        30.08R WCI  20
INTRNTL FALLS  CLOUDY    18  11  74 NW6       30.14R WCI  10
ELY            CLOUDY    23  18  80 CALM      30.08R
CLOQUET        CLOUDY    27  19  74 N5        30.09R WCI  21
WHEATON        CLOUDY    19  16  86 N13       30.21S WCI   7
BRAINERD       CLOUDY    23  16  74 N7        30.13R WCI  15
HIBBING        CLOUDY    23  16  74 NW7       30.10R WCI  15
ALEXANDRIA     CLOUDY    24  19  81 N10       30.13S WCI  14
SAINT CLOUD    CLOUDY    30  20  66 N6        30.11R WCI  24
MINNEAPOLIS    LGT SNOW  29  26  89 N10       30.08F FOG     WCI  20
$$

  *****  WEATHER ACROSS SOUTH DAKOTA  *****

CITY           SKY/WX    TMP DP  RH WIND       PRES   REMARKS
SIOUX FALLS    LGT SNOW  23  20  88 N12       30.08F FOG     WCI  12
BROOKINGS      NOT AVBL
WATERTOWN      CLOUDY    20  16  84 N16       30.12S WCI   6
HURON          CLOUDY    20  16  84 N16       30.16S WCI   6
SISSETON         N/A     19  17  92 N15       30.18S WCI   5
ABERDEEN       CLOUDY    16  11  80 N14       30.21F WCI   2
MITCHELL       LGT SNOW  23  20  88 N15       30.15F FOG     WCI  10
PIERRE         PTCLDY    15  10  80 NE8       30.17S WCI   4
MOBRIDGE       PTCLDY    13   8  81 E8        30.15R WCI   2
RAPID CITY     CLOUDY    18  14  84 CALM      30.12R
$$

  *****  SOME WEATHER IN NEARBY STATES *****

CITY           SKY/WX    TMP DP  RH WIND       PRES   REMARKS
GLASGOW MT     MOCLDY    24  19  81 W15       30.11S WCI  11
GREAT FALLS MT CLEAR     14   9  80 S14       30.07S WCI  -1
CHEYENNE WY    CLOUDY    12   7  80 NW6       29.96R HAZE    WCI   3
SCOTTSBLUFF NE CLOUDY    17  15  92 NW6       30.08R FOG     WCI   9
OMAHA NE       FRZ DRZL  32  31  96 N9        30.01F FOG     WCI  24
DES MOINES IA  CLOUDY    35  31  85 N5        29.98S
DAVENPORT IA   CLOUDY    44  36  73 NE5       29.98R
CHICAGO IL     CLOUDY    45  40  82 S6        30.02R
EAU CLAIRE WI  FLURRIES  32  28  85 N8        30.04S WCI  25
LA CROSSE WI   LGT RAIN  35  32  88 NW7       30.03R
$$

  *****  SOME NATIONAL WEATHER *****

CITY           SKY/WX    TMP DP  RH WIND       PRES   REMARKS
LA GUARDIA NY  CLEAR     46  29  51 W14       30.22F
RALEIGH NC     MOCLDY    40  34  79 CALM      30.32R
ATLANTA GA     MOCLDY    47  35  63 CALM      30.30R
NEW ORLEANS LA CLOUDY    62  56  80 E10       30.14F
OKLAHOMA CITY  PTCLDY    41  32  70 N14       30.03R
ALBUQUERQUE NM PTCLDY    31  11  43 W6        30.01R
SALT LAKE CITY MOCLDY    23  15  71 E3        30.15R
LOS ANGELES CA CLEAR     57  30  35 SW8       30.10R
BOISE ID       CLEAR     29  22  75 N6        30.25S WCI  23
SEATTLE WA     MOCLDY    41  37  86 CALM      30.36R
$$

*** WEATHER ACROSS MANITOBA...SASKATCHEWAN AND ONTARIO ***
                ***ONTARIO***

CITY           SKY/WX    TMP DP  RH WIND       PRES   REMARKS
GERALDTON      FRZ DRZL  21  19  93 NW3       30.06S
THUNDER BAY    NOT AVBL
SIOUX LOOKOUT  NOT AVBL
TORONTO        PTCLDY    39  34  81 W14G20    30.11R
BIG TROUT LK   CLEAR     -6  -9  84 W9        30.11S WCI -22
PICKLE LAKE    FLURRIES  14   9  79 W9        30.05R WCI   2
DRYDEN         CLOUDY     5   1  85 W9        30.15R WCI  -9
KENORA         FLURRIES   7   3  85 NW8       30.17R WCI  -6
$$
                *** MANITOBA***

CITY           SKY/WX    TMP DP  RH WIND       PRES   REMARKS
BRANDON        CLEAR     -9 -15  77 W9        30.20F WCI -27
DAUPHIN        PTCLDY    -8 -13  77 SW7       30.17F WCI -22
ISLAND LAKE    CLEAR    -11 -17  77 W7        30.14F WCI -26
PILOT MOUND      N/A     -9 -13  84 NW3         N/A
THE PAS        PTCLDY    -6  -9  84 S2        30.11F
THOMPSON       CLEAR    -27 -33  75 CALM      30.09F
WINNIPEG       NOT AVBL
GILLAM         CRYSTALS -20 -27  69 W10       30.08S WCI -41
$$
                ***SASKATCHEWAN***

CITY           SKY/WX    TMP DP  RH WIND       PRES   REMARKS
ESTEVAN        CLOUDY    10   9  92 SE2       30.12F
KINDERSLEY     PTCLDY     1  -2  85 S7        30.04F WCI -11
LLOYDMINSTER   FLURRIES  10   7  85 W6        30.00S WCI   1
PRINCE ALBERT  NOT AVBL
REGINA         FLURRIES   9   5  85 SE6       30.09F WCI  -1
YORKTON        NOT AVBL
N. BATTLEFORD  FLURRIES  12  10  92 W6        30.06S WCI   3
LA RONGE       NOT AVBL
SASKATOON      FLURRIES  10   7  85 W7        30.07R WCI   0
SWIFT CURRENT  PTCLDY    10   9  92 SW12      30.03F WCI  -4
$$
NOTE: THESE ARE AUTOMATED STATIONS WITH LIMITED QUALITY CONTROL
      "FAIR" INDICATES FEW OR NO CLOUDS BELOW 12,000 FEET WITH NO
      SIGNIFICANT WEATHER AND/OR OBSTRUCTIONS TO VISIBILITY.
      SKY/WX - SKY CONDITION AND SIGNIFICANT WEATHER.
      TMP - AIR TEMPERATURE.    DP   - DEWPOINT TEMPERATURE.
      RH  - RELATIVE HUMIDITY.  PRES - PRESSURE.
      HX  - HEAT INDEX.         WCI  - WIND CHILL INDEX.
$


USA.gov is the U.S. government's official web portal to all federal, state and local government web resources and services.